START_TIME,STEP,MOV.,M15,t_acc.,M20,t_acc.
1979-08-06 09:00:42.430 ,0,0,0.,24.0,0.,24.0
1979-08-06 09:01:06.430 ,0,1,0.,24.0,0.,24.0
1979-08-06 09:01:30.430 ,0,0,0.,24.0,0.,24.0
1979-08-06 09:01:54.430 ,1,1,0.,24.0,0.,24.0
1979-08-06 09:02:18.430 ,1,0,0.,24.0,0.,24.0
1979-08-06 09:02:42.430 ,2,1,0.,24.0,0.,24.0
1979-08-06 09:03:06.430 ,2,0,0.,24.0,0.,24.0
1979-08-06 09:03:30.430 ,3,1,0.,24.0,0.,24.0
1979-08-06 09:03:54.430 ,3,0,0.,24.0,0.,24.0
1979-08-06 09:04:18.430 ,4,1,0.,24.0,0.,24.0
1979-08-06 09:04:42.430 ,4,0,0.,24.0,0.,24.0
1979-08-06 09:05:06.430 ,5,1,0.,24.0,0.,24.0
1979-08-06 09:05:30.430 ,5,0,0.,24.0,0.,24.0
1979-08-06 09:05:54.430 ,6,1,0.,24.0,0.,24.0
1979-08-06 09:06:18.430 ,0,0,,0,,0
1979-08-06 09:07:19.030 ,7,0,0.,24.0,0.,24.0
1979-08-06 09:07:30.430 ,3,1,0.,24.0,0.,24.0
1979-08-06 09:07:54.430 ,0,1,0.,24.0,0.,24.0
1979-08-06 09:08:18.430 ,4,1,0.,24.0,0.,24.0
1979-08-06 09:08:42.430 ,7,1,0.,24.0,0.,24.0
1979-08-06 09:09:06.430 ,3,1,0.,24.0,0.,24.0
1979-08-06 09:09:30.430 ,0,1,0.,24.0,0.,24.0
1979-08-06 09:09:54.430 ,4,1,0.,24.0,0.,24.0
1979-08-06 09:10:18.430 ,7,1,0.,24.0,0.,24.0
1979-08-06 09:10:42.430 ,3,1,0.,24.0,0.,24.0
1979-08-06 09:11:06.430 ,0,1,0.,24.0,0.,24.0
1979-08-06 09:11:30.430 ,4,1,0.,24.0,0.,24.0
1979-08-06 09:11:54.430 ,7,1,0.,24.0,0.,24.0
1979-08-06 09:12:18.430 ,3,1,0.,24.0,0.,24.0
1979-08-06 09:12:42.430 ,0,1,0.,24.0,0.,24.0
1979-08-06 09:13:06.430 ,4,1,0.,24.0,0.,24.0
1979-08-06 09:13:30.430 ,7,1,0.,24.0,0.,24.0
1979-08-06 09:13:54.430 ,3,1,0.,24.0,0.,24.0
1979-08-06 09:14:18.430 ,0,1,0.,24.0,0.,24.0
1979-08-06 09:14:42.430 ,4,1,0.,24.0,0.,24.0
1979-08-06 09:15:06.430 ,7,1,0.,24.0,0.,24.0
1979-08-06 09:15:30.430 ,3,1,0.,24.0,0.,24.0
1979-08-06 09:15:54.430 ,0,1,0.,24.0,0.,24.0
1979-08-06 09:16:18.430 ,4,1,0.,24.0,0.,24.0
1979-08-06 09:16:42.430 ,7,1,0.,24.0,0.,24.0
1979-08-06 09:17:06.430 ,3,1,0.,24.0,0.,24.0
1979-08-06 09:17:30.430 ,0,1,0.,24.0,0.,24.0
1979-08-06 09:17:54.430 ,0,0,0.,24.0,0.,24.0
1979-08-06 09:18:18.430 ,0,0,0.,24.0,0.,24.0
1979-08-06 09:18:42.430 ,5,1,0.,24.0,0.,24.0
1979-08-06 09:19:06.430 ,5,0,0.,24.0,0.,24.0
1979-08-06 09:19:30.430 ,4,1,0.,24.0,0.,24.0
1979-08-06 09:19:54.430 ,4,0,0.,24.0,0.,24.0
1979-08-06 09:20:18.430 ,3,1,0.,24.0,0.,24.0
1979-08-06 09:20:42.430 ,3,0,0.,24.0,0.,24.0
1979-08-06 09:21:06.430 ,2,1,0.,24.0,0.,24.0
1979-08-06 09:21:30.430 ,2,0,0.,24.0,0.,24.0
1979-08-06 09:21:54.430 ,1,1,0.,24.0,0.,24.0
1979-08-06 09:22:18.430 ,1,0,0.,24.0,0.,24.0
1979-08-06 09:22:42.430 ,0,1,0.,24.0,0.,24.0
1979-08-06 09:23:06.430 ,0,0,0.,24.0,0.,24.0
1979-08-06 09:23:30.430 ,0,1,0.,24.0,0.,24.0
1979-08-06 09:23:54.430 ,0,0,0.,24.0,0.,24.0
1979-08-06 09:24:18.430 ,1,1,0.,24.0,0.,24.0
1979-08-06 09:24:42.430 ,1,0,0.,24.0,0.,24.0
1979-08-06 09:25:06.430 ,2,1,0.,24.0,0.,24.0
1979-08-06 09:25:30.430 ,2,0,0.,24.0,0.,24.0
1979-08-06 09:25:54.430 ,3,1,0.,24.0,0.,24.0
1979-08-06 09:26:18.430 ,3,0,0.,24.0,0.,24.0
1979-08-06 09:26:42.430 ,4,1,0.,24.0,0.,24.0
1979-08-06 09:27:06.430 ,4,0,0.,24.0,0.,24.0
1979-08-06 09:27:30.430 ,5,1,0.,24.0,0.,24.0
1979-08-06 09:27:54.430 ,5,0,0.,24.0,0.,24.0
1979-08-06 09:28:18.430 ,6,1,0.,24.0,0.,24.0
1979-08-06 09:28:42.430 ,6,0,0.,24.0,0.,24.0
1979-08-06 09:29:06.430 ,7,1,0.,24.0,0.,24.0
1979-08-06 09:29:30.430 ,7,0,0.,24.0,0.,24.0
1979-08-06 09:29:54.430 ,7,1,0.,24.0,0.,24.0
1979-08-06 09:30:18.430 ,7,0,0.,24.0,0.,24.0
1979-08-06 09:30:42.430 ,6,1,0.,24.0,0.,24.0
1979-08-06 09:31:06.430 ,6,0,0.,24.0,0.,24.0
1979-08-06 09:31:30.430 ,5,1,0.,24.0,0.,24.0
1979-08-06 09:31:54.430 ,5,0,0.,24.0,0.,24.0
1979-08-06 09:32:18.430 ,4,1,0.,24.0,0.,24.0
1979-08-06 09:32:42.430 ,4,0,0.,24.0,0.,24.0
1979-08-06 09:33:06.430 ,3,1,0.,24.0,0.,24.0
1979-08-06 09:33:30.430 ,3,0,0.,24.0,0.,24.0
1979-08-06 09:33:54.430 ,2,1,0.,24.0,0.,24.0
1979-08-06 09:34:18.430 ,2,0,0.,24.0,0.,24.0
1979-08-06 09:34:42.430 ,1,1,0.,24.0,0.,24.0
1979-08-06 09:35:06.430 ,1,0,0.,24.0,0.,24.0
1979-08-06 09:35:30.430 ,0,1,0.,24.0,0.,24.0
1979-08-06 09:35:54.430 ,0,0,0.,24.0,0.,24.0
1979-08-06 09:36:18.430 ,0,1,0.,24.0,0.,24.0
1979-08-06 09:36:42.430 ,0,0,0.,24.0,0.,24.0
1979-08-06 09:37:06.430 ,1,1,0.,24.0,0.,24.0
1979-08-06 09:37:30.430 ,1,0,0.,24.0,0.,24.0
1979-08-06 09:37:54.430 ,2,1,0.,24.0,0.,24.0
1979-08-06 09:38:18.430 ,2,0,0.,24.0,0.,24.0
1979-08-06 09:38:42.430 ,3,1,0.,24.0,0.,24.0
1979-08-06 09:39:06.430 ,3,0,0.,24.0,0.,24.0
1979-08-06 09:39:30.430 ,4,1,0.,24.0,0.,24.0
1979-08-06 09:39:54.430 ,4,0,0.,24.0,0.,24.0
1979-08-06 09:40:18.430 ,5,1,0.,24.0,0.,24.0
1979-08-06 09:40:42.430 ,5,0,0.,24.0,0.,24.0
1979-08-06 09:41:06.430 ,6,1,0.,24.0,0.,24.0
1979-08-06 09:41:30.430 ,6,0,0.,24.0,0.,24.0
1979-08-06 09:41:54.430 ,7,1,0.,24.0,0.,24.0
1979-08-06 09:42:18.430 ,7,0,0.,24.0,0.,24.0
1979-08-06 09:42:42.430 ,7,1,0.,24.0,0.,24.0
1979-08-06 09:43:06.430 ,7,0,0.,24.0,0.,24.0
1979-08-06 09:43:30.430 ,6,1,0.,24.0,0.,24.0
1979-08-06 09:43:54.430 ,6,0,0.,24.0,0.,24.0
1979-08-06 09:44:18.430 ,5,1,0.,24.0,0.,24.0
1979-08-06 09:44:42.430 ,5,0,0.,24.0,0.,24.0
1979-08-06 09:45:06.430 ,4,1,0.,24.0,0.,24.0
1979-08-06 09:45:30.430 ,4,0,0.,24.0,0.,24.0
1979-08-06 09:45:54.430 ,3,1,0.,24.0,0.,24.0
1979-08-06 09:46:18.430 ,3,0,0.,24.0,0.,24.0
1979-08-06 09:46:42.430 ,2,1,0.,24.0,0.,24.0
1979-08-06 09:47:06.430 ,2,0,0.,24.0,0.,24.0
1979-08-06 09:47:30.430 ,1,1,0.,24.0,0.,24.0
1979-08-06 09:47:54.430 ,1,0,0.,24.0,0.,24.0
1979-08-06 09:48:18.430 ,0,1,0.,24.0,0.,24.0
1979-08-06 09:48:42.430 ,0,0,0.,24.0,0.,24.0
1979-08-06 09:49:06.430 ,0,1,0.,24.0,0.,24.0
1979-08-06 09:49:30.430 ,0,0,0.,24.0,0.,24.0
1979-08-06 09:49:54.430 ,1,1,0.,24.0,0.,24.0
1979-08-06 09:50:18.430 ,1,0,0.,24.0,0.,24.0
1979-08-06 09:50:42.430 ,2,1,0.,24.0,0.,24.0
1979-08-06 09:51:06.430 ,2,0,0.,24.0,1.,24.0
1979-08-06 09:51:30.430 ,3,1,0.,24.0,0.,24.0
1979-08-06 09:51:54.430 ,3,0,0.,24.0,0.,24.0
1979-08-06 09:52:18.430 ,4,1,0.,24.0,0.,24.0
1979-08-06 09:52:42.430 ,4,0,0.,24.0,0.,24.0
1979-08-06 09:53:06.430 ,5,1,0.,24.0,0.,24.0
1979-08-06 09:53:30.430 ,5,0,0.,24.0,0.,24.0
1979-08-06 09:53:54.430 ,6,1,0.,24.0,0.,24.0
1979-08-06 09:54:18.430 ,6,0,0.,24.0,0.,24.0
1979-08-06 09:54:42.430 ,7,0,0.,24.0,0.,24.0
1979-08-06 09:55:06.430 ,7,0,0.,24.0,0.,24.0
1979-08-06 09:55:30.430 ,3,1,0.,24.0,0.,24.0
1979-08-06 09:55:54.430 ,0,1,0.,24.0,0.,24.0
1979-08-06 09:56:18.430 ,4,1,0.,24.0,0.,24.0
1979-08-06 09:56:42.430 ,7,1,0.,24.0,0.,24.0
1979-08-06 09:57:06.430 ,3,1,0.,24.0,0.,24.0
1979-08-06 09:57:30.430 ,0,1,0.,24.0,0.,24.0
1979-08-06 09:57:54.430 ,4,1,0.,24.0,0.,24.0
1979-08-06 09:58:18.430 ,7,1,0.,24.0,0.,24.0
1979-08-06 09:58:42.430 ,3,1,0.,24.0,0.,24.0
1979-08-06 09:59:06.430 ,0,1,0.,24.0,0.,24.0
1979-08-06 09:59:30.430 ,4,1,0.,24.0,0.,24.0
1979-08-06 09:59:54.430 ,7,1,0.,24.0,0.,24.0
1979-08-06 10:00:18.430 ,3,1,0.,24.0,0.,24.0
1979-08-06 10:00:42.430 ,0,1,0.,24.0,0.,24.0
1979-08-06 10:01:06.430 ,4,1,0.,24.0,0.,24.0
1979-08-06 10:01:30.430 ,7,1,0.,24.0,0.,24.0
1979-08-06 10:01:54.430 ,3,1,0.,24.0,0.,24.0
1979-08-06 10:02:18.430 ,0,1,0.,24.0,0.,24.0
1979-08-06 10:02:42.430 ,4,1,0.,24.0,0.,24.0
1979-08-06 10:03:06.430 ,7,1,0.,24.0,0.,24.0
1979-08-06 10:03:30.430 ,3,1,0.,24.0,0.,24.0
1979-08-06 10:03:54.430 ,0,1,0.,24.0,0.,24.0
1979-08-06 10:04:18.430 ,4,1,0.,24.0,0.,24.0
1979-08-06 10:04:42.430 ,7,1,0.,24.0,0.,24.0
1979-08-06 10:05:06.430 ,3,1,0.,24.0,0.,24.0
1979-08-06 10:05:30.430 ,0,1,0.,24.0,0.,24.0
1979-08-06 10:05:54.430 ,0,0,0.,24.0,0.,24.0
1979-08-06 10:06:18.430 ,0,0,0.,24.0,0.,24.0
1979-08-06 10:06:42.430 ,5,1,0.,24.0,0.,24.0
1979-08-06 10:07:06.430 ,5,0,0.,24.0,0.,24.0
1979-08-06 10:07:30.430 ,4,1,0.,24.0,0.,24.0
1979-08-06 10:07:54.430 ,4,0,0.,24.0,0.,24.0
1979-08-06 10:08:18.430 ,3,1,0.,24.0,0.,24.0
1979-08-06 10:08:42.430 ,3,0,0.,24.0,0.,24.0
1979-08-06 10:09:06.430 ,2,1,0.,24.0,0.,24.0
1979-08-06 10:09:30.430 ,2,0,0.,24.0,0.,24.0
1979-08-06 10:09:54.430 ,1,1,0.,24.0,0.,24.0
1979-08-06 10:10:18.430 ,1,0,0.,24.0,0.,24.0
1979-08-06 10:10:42.430 ,0,1,0.,24.0,0.,24.0
1979-08-06 10:11:06.430 ,0,0,0.,24.0,0.,24.0
1979-08-06 10:11:30.430 ,0,1,0.,24.0,0.,24.0
1979-08-06 10:11:54.430 ,0,0,0.,24.0,0.,24.0
1979-08-06 10:12:18.430 ,1,1,0.,24.0,0.,24.0
1979-08-06 10:12:42.430 ,1,0,0.,24.0,0.,24.0
1979-08-06 10:13:06.430 ,2,1,0.,24.0,0.,24.0
1979-08-06 10:13:30.430 ,2,0,0.,24.0,0.,24.0
1979-08-06 10:13:54.430 ,3,1,0.,24.0,0.,24.0
1979-08-06 10:14:18.430 ,3,0,0.,24.0,0.,24.0
1979-08-06 10:14:42.430 ,4,1,0.,24.0,0.,24.0
1979-08-06 10:15:06.430 ,4,0,0.,24.0,0.,24.0
1979-08-06 10:15:30.430 ,5,1,0.,24.0,0.,24.0
1979-08-06 10:15:54.430 ,5,0,0.,24.0,0.,24.0
1979-08-06 10:16:18.430 ,6,1,0.,24.0,0.,24.0
1979-08-06 10:16:42.430 ,6,0,0.,24.0,0.,24.0
1979-08-06 10:17:06.430 ,7,1,0.,24.0,0.,24.0
1979-08-06 10:17:30.430 ,7,0,0.,24.0,0.,24.0
1979-08-06 10:17:54.430 ,7,1,0.,24.0,0.,24.0
1979-08-06 10:18:18.430 ,7,0,0.,24.0,0.,24.0
1979-08-06 10:18:42.430 ,6,1,0.,24.0,0.,24.0
1979-08-06 10:19:06.430 ,6,0,0.,24.0,0.,24.0
1979-08-06 10:19:30.430 ,5,1,0.,24.0,0.,24.0
1979-08-06 10:19:54.430 ,5,0,0.,24.0,0.,24.0
1979-08-06 10:20:18.430 ,4,1,0.,24.0,0.,24.0
1979-08-06 10:20:42.430 ,4,0,0.,24.0,0.,24.0
1979-08-06 10:21:06.430 ,3,1,0.,24.0,0.,24.0
1979-08-06 10:21:30.430 ,3,0,0.,24.0,0.,24.0
1979-08-06 10:21:54.430 ,2,1,0.,24.0,0.,24.0
1979-08-06 10:22:18.430 ,2,0,0.,24.0,1.,24.0
1979-08-06 10:22:42.430 ,1,1,0.,24.0,0.,24.0
1979-08-06 10:23:06.430 ,1,0,0.,24.0,0.,24.0
1979-08-06 10:23:30.430 ,0,1,0.,24.0,0.,24.0
1979-08-06 10:23:54.430 ,0,0,0.,24.0,0.,24.0
1979-08-06 10:24:18.430 ,0,1,0.,24.0,0.,24.0
1979-08-06 10:24:42.430 ,0,0,0.,24.0,0.,24.0
1979-08-06 10:25:06.430 ,1,1,0.,24.0,0.,24.0
1979-08-06 10:25:30.430 ,1,0,0.,24.0,0.,24.0
1979-08-06 10:25:54.430 ,2,1,0.,24.0,0.,24.0
1979-08-06 10:26:18.430 ,2,0,0.,24.0,0.,24.0
1979-08-06 10:26:42.430 ,3,1,0.,24.0,0.,24.0
1979-08-06 10:27:06.430 ,3,0,0.,24.0,0.,24.0
1979-08-06 10:27:30.430 ,4,1,0.,24.0,0.,24.0
1979-08-06 10:27:54.430 ,4,0,0.,24.0,0.,24.0
1979-08-06 10:28:18.430 ,5,1,0.,24.0,0.,24.0
1979-08-06 10:28:42.430 ,5,0,0.,24.0,0.,24.0
1979-08-06 10:29:06.430 ,6,1,0.,24.0,0.,24.0
1979-08-06 10:29:30.430 ,6,0,0.,24.0,0.,24.0
1979-08-06 10:29:54.430 ,7,1,0.,24.0,0.,24.0
1979-08-06 10:30:18.430 ,7,0,0.,24.0,0.,24.0
1979-08-06 10:30:42.430 ,7,1,0.,24.0,0.,24.0
1979-08-06 10:31:06.430 ,7,0,0.,24.0,0.,24.0
1979-08-06 10:31:30.430 ,6,1,0.,24.0,0.,24.0
1979-08-06 10:31:54.430 ,6,0,0.,24.0,0.,24.0
1979-08-06 10:32:18.430 ,5,1,0.,24.0,0.,24.0
1979-08-06 10:32:42.430 ,5,0,0.,24.0,0.,24.0
1979-08-06 10:33:06.430 ,4,1,0.,24.0,0.,24.0
1979-08-06 10:33:30.430 ,4,0,0.,24.0,0.,24.0
1979-08-06 10:33:54.430 ,3,1,0.,24.0,0.,24.0
1979-08-06 10:34:18.430 ,3,0,0.,24.0,0.,24.0
1979-08-06 10:34:42.420 ,2,1,0.,24.0,0.,24.0
1979-08-06 10:35:06.420 ,2,0,0.,24.0,0.,24.0
1979-08-06 10:35:30.420 ,1,1,0.,24.0,0.,24.0
1979-08-06 10:35:54.420 ,1,0,0.,24.0,0.,24.0
1979-08-06 10:36:18.420 ,0,1,0.,24.0,0.,24.0
1979-08-06 10:36:42.420 ,0,0,0.,24.0,0.,24.0
1979-08-06 10:37:06.420 ,0,1,0.,24.0,0.,24.0
1979-08-06 10:37:30.420 ,0,0,0.,24.0,0.,24.0
1979-08-06 10:37:54.420 ,1,1,0.,24.0,0.,24.0
1979-08-06 10:38:18.420 ,1,0,0.,24.0,0.,24.0
1979-08-06 10:38:42.420 ,2,1,0.,24.0,0.,24.0
1979-08-06 10:39:06.420 ,2,0,0.,24.0,0.,24.0
1979-08-06 10:39:30.420 ,3,1,0.,24.0,0.,24.0
1979-08-06 10:39:54.420 ,3,0,0.,24.0,0.,24.0
1979-08-06 10:40:18.420 ,4,1,0.,24.0,0.,24.0
1979-08-06 10:40:42.420 ,4,0,0.,24.0,0.,24.0
1979-08-06 10:41:06.420 ,5,1,0.,24.0,0.,24.0
1979-08-06 10:41:30.420 ,5,0,0.,24.0,0.,24.0
1979-08-06 10:41:54.420 ,6,1,0.,24.0,0.,24.0
1979-08-06 10:42:18.420 ,6,0,0.,24.0,0.,24.0
1979-08-06 10:42:42.420 ,7,0,0.,24.0,0.,24.0
1979-08-06 10:43:06.420 ,7,0,0.,24.0,0.,24.0
1979-08-06 10:43:30.420 ,3,1,0.,24.0,0.,24.0
1979-08-06 10:43:54.420 ,0,1,0.,24.0,0.,24.0
1979-08-06 10:44:18.420 ,4,1,0.,24.0,0.,24.0
1979-08-06 10:44:42.420 ,7,1,0.,24.0,0.,24.0
1979-08-06 10:45:06.420 ,3,1,0.,24.0,0.,24.0
1979-08-06 10:45:30.420 ,0,1,0.,24.0,0.,24.0
1979-08-06 10:45:54.420 ,4,1,0.,24.0,0.,24.0
1979-08-06 10:46:18.420 ,7,1,0.,24.0,0.,24.0
1979-08-06 10:46:42.420 ,3,1,0.,24.0,0.,24.0
1979-08-06 10:47:06.420 ,0,1,0.,24.0,0.,24.0
1979-08-06 10:47:30.420 ,4,1,0.,24.0,0.,24.0
1979-08-06 10:47:54.420 ,7,1,0.,24.0,0.,24.0
1979-08-06 10:48:18.420 ,3,1,0.,24.0,0.,24.0
1979-08-06 10:48:42.420 ,0,1,0.,24.0,0.,24.0
1979-08-06 10:49:06.420 ,4,1,0.,24.0,0.,24.0
1979-08-06 10:49:30.420 ,7,1,0.,24.0,0.,24.0
1979-08-06 10:49:54.420 ,3,1,0.,24.0,0.,24.0
1979-08-06 10:50:18.420 ,0,1,0.,24.0,0.,24.0
1979-08-06 10:50:42.420 ,4,1,0.,24.0,0.,24.0
1979-08-06 10:51:06.420 ,7,1,0.,24.0,0.,24.0
1979-08-06 10:51:30.420 ,3,1,0.,24.0,0.,24.0
1979-08-06 10:51:54.420 ,0,1,0.,24.0,0.,24.0
1979-08-06 10:52:18.420 ,4,1,0.,24.0,0.,24.0
1979-08-06 10:52:42.420 ,7,1,0.,24.0,0.,24.0
1979-08-06 10:53:06.420 ,3,1,0.,24.0,0.,24.0
1979-08-06 10:53:30.420 ,0,1,0.,24.0,0.,24.0
1979-08-06 10:53:54.420 ,0,0,0.,24.0,0.,24.0
1979-08-06 10:54:18.420 ,0,0,0.,24.0,0.,24.0
1979-08-06 10:54:42.420 ,5,1,0.,24.0,0.,24.0
1979-08-06 10:55:06.420 ,5,0,0.,24.0,0.,24.0
1979-08-06 10:55:30.420 ,4,1,0.,24.0,0.,24.0
1979-08-06 10:55:54.420 ,4,0,0.,24.0,0.,24.0
1979-08-06 10:56:18.420 ,3,1,0.,24.0,0.,24.0
1979-08-06 10:56:42.420 ,3,0,0.,24.0,0.,24.0
1979-08-06 10:57:06.420 ,2,1,0.,24.0,0.,24.0
1979-08-06 10:57:30.420 ,2,0,0.,24.0,0.,24.0
1979-08-06 10:57:54.420 ,1,1,0.,24.0,0.,24.0
1979-08-06 10:58:18.420 ,1,0,0.,24.0,0.,24.0
1979-08-06 10:58:42.420 ,0,1,0.,24.0,0.,24.0
1979-08-06 10:59:06.420 ,0,0,0.,24.0,0.,24.0
1979-08-06 10:59:30.420 ,0,1,0.,24.0,0.,24.0
1979-08-06 10:59:54.420 ,0,0,0.,24.0,0.,24.0
1979-08-06 11:00:18.420 ,1,1,0.,24.0,0.,24.0
1979-08-06 11:00:42.420 ,1,0,0.,24.0,0.,24.0
1979-08-06 11:01:06.420 ,2,1,0.,24.0,0.,24.0
1979-08-06 11:01:30.420 ,2,0,0.,24.0,0.,24.0
1979-08-06 11:01:54.420 ,3,1,0.,24.0,0.,24.0
1979-08-06 11:02:18.420 ,3,0,0.,24.0,0.,24.0
1979-08-06 11:02:42.420 ,4,1,0.,24.0,0.,24.0
1979-08-06 11:03:06.420 ,4,0,0.,24.0,0.,24.0
1979-08-06 11:03:30.420 ,5,1,0.,24.0,0.,24.0
1979-08-06 11:03:54.420 ,0,0,,0,,0
1979-08-06 11:04:18.420 ,6,1,0.,24.0,0.,24.0
1979-08-06 11:04:42.420 ,6,0,0.,24.0,0.,24.0
1979-08-06 11:05:06.420 ,7,1,0.,24.0,0.,24.0
1979-08-06 11:05:30.420 ,7,0,0.,24.0,0.,24.0
1979-08-06 11:05:54.420 ,7,1,0.,24.0,0.,24.0
1979-08-06 11:06:18.420 ,7,0,0.,24.0,0.,24.0
1979-08-06 11:06:42.420 ,6,1,0.,24.0,0.,24.0
1979-08-06 11:07:06.420 ,6,0,0.,24.0,0.,24.0
1979-08-06 11:07:30.420 ,5,1,0.,24.0,0.,24.0
1979-08-06 11:07:54.420 ,5,0,0.,24.0,0.,24.0
1979-08-06 11:08:18.420 ,4,1,0.,24.0,0.,24.0
1979-08-06 11:08:42.420 ,4,0,0.,24.0,0.,24.0
1979-08-06 11:09:06.420 ,3,1,0.,24.0,0.,24.0
1979-08-06 11:09:30.420 ,3,0,0.,24.0,0.,24.0
1979-08-06 11:09:54.420 ,2,1,0.,24.0,0.,24.0
1979-08-06 11:10:18.420 ,2,0,0.,24.0,0.,24.0
1979-08-06 11:10:42.420 ,1,1,0.,24.0,0.,24.0
1979-08-06 11:11:06.420 ,1,0,0.,24.0,0.,24.0
1979-08-06 11:11:30.420 ,0,1,0.,24.0,0.,24.0
1979-08-06 11:11:54.420 ,0,0,0.,24.0,0.,24.0
1979-08-06 11:12:18.420 ,0,1,0.,24.0,0.,24.0
1979-08-06 11:12:42.420 ,0,0,0.,24.0,0.,24.0
1979-08-06 11:13:06.420 ,1,1,0.,24.0,0.,24.0
1979-08-06 11:13:30.420 ,1,0,0.,24.0,0.,24.0
1979-08-06 11:13:54.420 ,2,1,0.,24.0,0.,24.0
1979-08-06 11:14:18.420 ,2,0,0.,24.0,0.,24.0
1979-08-06 11:14:42.420 ,3,1,0.,24.0,0.,24.0
1979-08-06 11:15:06.420 ,3,0,0.,24.0,0.,24.0
1979-08-06 11:15:30.420 ,4,1,0.,24.0,0.,24.0
1979-08-06 11:15:54.420 ,4,0,0.,24.0,0.,24.0
1979-08-06 11:16:18.420 ,5,1,0.,24.0,0.,24.0
1979-08-06 11:16:42.420 ,5,0,0.,24.0,0.,24.0
1979-08-06 11:17:06.420 ,6,1,0.,24.0,0.,24.0
1979-08-06 11:17:30.420 ,6,0,0.,24.0,0.,24.0
1979-08-06 11:17:54.420 ,7,1,0.,24.0,0.,24.0
1979-08-06 11:18:18.420 ,7,0,0.,24.0,0.,24.0
1979-08-06 11:18:42.420 ,7,1,0.,24.0,0.,24.0
1979-08-06 11:19:06.420 ,7,0,0.,24.0,0.,24.0
1979-08-06 11:19:30.420 ,6,1,0.,24.0,0.,24.0
1979-08-06 11:19:54.420 ,6,0,0.,24.0,0.,24.0
1979-08-06 11:20:18.420 ,5,1,0.,24.0,0.,24.0
1979-08-06 11:20:42.420 ,5,0,0.,24.0,0.,24.0
1979-08-06 11:21:06.420 ,4,1,0.,24.0,0.,24.0
1979-08-06 11:21:30.420 ,4,0,0.,24.0,0.,24.0
1979-08-06 11:21:54.420 ,3,1,0.,24.0,0.,24.0
1979-08-06 11:22:18.420 ,3,0,0.,24.0,0.,24.0
1979-08-06 11:22:42.420 ,2,1,0.,24.0,0.,24.0
1979-08-06 11:23:06.420 ,2,0,0.,24.0,0.,24.0
1979-08-06 11:23:30.420 ,1,1,0.,24.0,0.,24.0
1979-08-06 11:23:54.420 ,1,0,0.,24.0,0.,24.0
1979-08-06 11:24:18.420 ,0,1,0.,24.0,0.,24.0
1979-08-06 11:24:42.420 ,0,0,0.,24.0,0.,24.0
1979-08-06 11:25:06.420 ,0,1,0.,24.0,0.,24.0
1979-08-06 11:25:30.420 ,0,0,0.,24.0,0.,24.0
1979-08-06 11:25:54.420 ,1,1,0.,24.0,0.,24.0
1979-08-06 11:26:18.420 ,1,0,0.,24.0,0.,24.0
1979-08-06 11:26:42.420 ,2,1,0.,24.0,0.,24.0
1979-08-06 11:27:06.420 ,2,0,0.,24.0,0.,24.0
1979-08-06 11:27:30.420 ,3,1,0.,24.0,0.,24.0
1979-08-06 11:27:54.420 ,3,0,0.,24.0,0.,24.0
1979-08-06 11:28:18.420 ,4,1,0.,24.0,0.,24.0
1979-08-06 11:28:42.420 ,4,0,0.,24.0,0.,24.0
1979-08-06 11:29:06.420 ,5,1,0.,24.0,0.,24.0
1979-08-06 11:29:30.420 ,5,0,0.,24.0,0.,24.0
1979-08-06 11:29:54.420 ,6,1,0.,24.0,0.,24.0
1979-08-06 11:30:18.420 ,6,0,0.,24.0,0.,24.0
1979-08-06 11:30:42.420 ,7,0,0.,24.0,0.,24.0
1979-08-06 11:31:06.420 ,7,0,0.,24.0,0.,24.0
1979-08-06 11:31:30.420 ,3,1,0.,24.0,0.,24.0
1979-08-06 11:31:54.420 ,0,1,0.,24.0,0.,24.0
1979-08-06 11:32:18.420 ,4,1,0.,24.0,0.,24.0
1979-08-06 11:32:42.420 ,7,1,0.,24.0,0.,24.0
1979-08-06 11:33:06.420 ,3,1,0.,24.0,0.,24.0
1979-08-06 11:33:30.420 ,0,1,0.,24.0,0.,24.0
1979-08-06 11:33:54.420 ,4,1,0.,24.0,0.,24.0
1979-08-06 11:34:18.420 ,7,1,0.,24.0,0.,24.0
1979-08-06 11:34:42.420 ,3,1,0.,24.0,0.,24.0
1979-08-06 11:35:06.420 ,0,1,0.,24.0,0.,24.0
1979-08-06 11:35:30.420 ,4,1,0.,24.0,0.,24.0
1979-08-06 11:35:54.420 ,7,1,0.,24.0,0.,24.0
1979-08-06 11:36:18.420 ,3,1,0.,24.0,0.,24.0
1979-08-06 11:36:42.420 ,0,1,0.,24.0,0.,24.0
1979-08-06 11:37:06.420 ,4,1,0.,24.0,0.,24.0
1979-08-06 11:37:30.420 ,7,1,0.,24.0,0.,24.0
1979-08-06 11:37:54.420 ,3,1,1.,24.0,0.,24.0
1979-08-06 11:38:18.420 ,0,1,0.,24.0,0.,24.0
1979-08-06 11:38:42.420 ,4,1,0.,24.0,0.,24.0
1979-08-06 11:39:06.420 ,7,1,0.,24.0,0.,24.0
1979-08-06 11:39:30.420 ,3,1,0.,24.0,0.,24.0
1979-08-06 11:39:54.420 ,0,1,0.,24.0,0.,24.0
1979-08-06 11:40:18.420 ,4,1,0.,24.0,0.,24.0
1979-08-06 11:40:42.420 ,7,1,0.,24.0,0.,24.0
1979-08-06 11:41:06.420 ,3,1,0.,24.0,0.,24.0
1979-08-06 11:41:30.420 ,0,1,0.,24.0,0.,24.0
1979-08-06 11:41:54.420 ,0,0,0.,24.0,0.,24.0
1979-08-06 11:42:18.420 ,0,0,0.,24.0,0.,24.0
1979-08-06 11:42:42.420 ,5,1,0.,24.0,0.,24.0
1979-08-06 11:43:06.420 ,5,0,0.,24.0,0.,24.0
1979-08-06 11:43:30.420 ,4,1,0.,24.0,0.,24.0
1979-08-06 11:43:54.420 ,4,0,0.,24.0,0.,24.0
1979-08-06 11:44:18.420 ,3,1,0.,24.0,0.,24.0
1979-08-06 11:44:42.420 ,3,0,0.,24.0,0.,24.0
1979-08-06 11:45:06.420 ,2,1,0.,24.0,0.,24.0
1979-08-06 11:45:30.420 ,2,0,0.,24.0,0.,24.0
1979-08-06 11:45:54.420 ,1,1,0.,24.0,0.,24.0
1979-08-06 11:46:18.420 ,1,0,0.,24.0,0.,24.0
1979-08-06 11:46:42.420 ,0,1,0.,24.0,0.,24.0
1979-08-06 11:47:06.420 ,0,0,0.,24.0,1.,24.0
1979-08-06 11:47:30.420 ,0,1,0.,24.0,0.,24.0
1979-08-06 11:47:54.420 ,0,0,0.,24.0,0.,24.0
1979-08-06 11:48:18.420 ,1,1,1.,24.0,0.,24.0
1979-08-06 11:48:42.420 ,1,0,0.,24.0,0.,24.0
1979-08-06 11:49:06.420 ,2,1,0.,24.0,0.,24.0
1979-08-06 11:49:30.420 ,2,0,0.,24.0,0.,24.0
1979-08-06 11:49:54.420 ,3,1,0.,24.0,0.,24.0
1979-08-06 11:50:18.420 ,3,0,0.,24.0,0.,24.0
1979-08-06 11:50:42.420 ,4,1,0.,24.0,0.,24.0
1979-08-06 11:51:06.420 ,4,0,0.,24.0,0.,24.0
1979-08-06 11:51:30.420 ,5,1,0.,24.0,0.,24.0
1979-08-06 11:51:54.420 ,5,0,0.,24.0,0.,24.0
1979-08-06 11:52:18.420 ,6,1,0.,24.0,0.,24.0
1979-08-06 11:52:42.420 ,6,0,0.,24.0,0.,24.0
1979-08-06 11:53:06.420 ,7,1,0.,24.0,0.,24.0
1979-08-06 11:53:30.420 ,7,0,0.,24.0,0.,24.0
1979-08-06 11:53:54.420 ,7,1,0.,24.0,0.,24.0
1979-08-06 11:54:18.420 ,7,0,0.,24.0,0.,24.0
1979-08-06 11:54:42.420 ,6,1,0.,24.0,0.,24.0
1979-08-06 11:55:06.420 ,6,0,0.,24.0,0.,24.0
1979-08-06 11:55:30.420 ,5,1,0.,24.0,0.,24.0
1979-08-06 11:55:54.420 ,5,0,0.,24.0,0.,24.0
1979-08-06 11:56:18.420 ,4,1,0.,24.0,0.,24.0
1979-08-06 11:56:42.420 ,4,0,0.,24.0,0.,24.0
1979-08-06 11:57:06.420 ,3,1,0.,24.0,0.,24.0
1979-08-06 11:57:30.420 ,3,0,0.,24.0,0.,24.0
1979-08-06 11:57:54.420 ,2,1,0.,24.0,0.,24.0
1979-08-06 11:58:18.420 ,2,0,0.,24.0,0.,24.0
1979-08-06 11:58:42.420 ,1,1,0.,24.0,0.,24.0
1979-08-06 11:59:06.420 ,1,0,0.,24.0,0.,24.0
1979-08-06 11:59:30.420 ,0,1,0.,24.0,0.,24.0
1979-08-06 11:59:54.420 ,0,0,0.,24.0,0.,24.0
1979-08-06 12:00:18.420 ,0,1,0.,24.0,0.,24.0
